User: anonymous   Login
Location: Unspecified
(39.0670°S, 0.0000°E)
Time: 07:22:17
(UTC+00:00)
Language:

DIWATA 2B (PO-101) - Orbit

View from above orbital plane
View from above orbital plane
View from above satellite
View from above satellite

Ground track
Ground track

The orbit data is extracted from the following two-line orbital elements,

1 43678U 18084H   19262.92113927 +.00000123 +00000-0 +18004-4 0  9996
2 43678 097.8608 016.8129 0009934 003.6651 356.4638 14.91571009048544
Epoch (UTC): 19 September 2019 22:06:26
Eccentricity: 0.0009934
inclination: 97.8608°
perigee height: 586 km
apogee height: 600 km
right ascension of ascending node: 16.8129°
argument of perigee: 3.6651°
revolutions per day: 14.91571009
mean anomaly at epoch: 356.4638°
orbit number at epoch: 4854

The dashed part of the orbit path shows where the satellite is in the earth's shadow,  

DLR